SCP
0 0 0 0 0 0 0 0 0 2 3 5 5 5 4 4 5 5 5 6 7 7 7 6 6 6 5 4 3 3 3 3 3 3 3 2 3 3 3 3 3 3 3 2
0 0 0 0 0 0 0 0 1 3 4 5 6 5 4 4 5 5 5 5 6 6 6 6 5 5 4 4 3 3 3 3 3 3 2 2 3 3 3 3 3 3 3 2
0 0 0 0 0 0 0 1 2 4 5 6 7 7 5 4 5 6 6 6 6 6 5 5 5 4 4 4 3 3 3 3 3 3 3 2 2 3 3 3 3 3 3 2
0 0 0 0 0 1 1 2 3 5 6 7 7 7 6 6 6 7 7 7 6 5 4 4 5 5 5 4 4 3 3 3 3 3 3 2 2 2 2 2 2 2 2 2
0 0 0 1 1 1 1 2 3 5 7 8 7 6 6 6 8 9 9 8 7 6 6 6 5 5 5 5 4 4 3 3 3 3 3 2 2 2 2 2 2 2 2 2
0 0 0 1 1 1 2 3 4 5 8 8 7 5 5 6 7 9 10 10 8 8 8 7 6 5 5 5 4 4 4 4 4 4 3 3 3 3 3 3 2 2 2 2
1 1 1 1 1 1 3 4 5 5 7 8 8 7 7 7 8 9 10 9 8 8 8 7 6 5 5 5 4 4 4 4 4 4 4 4 4 4 3 3 3 2 2 1
1 2 2 3 3 3 4 6 7 7 8 8 8 8 8 8 9 9 8 7 7 7 7 6 6 5 5 5 4 4 4 4 5 5 5 4 4 4 3 3 2 2 1 1
3 3 4 5 5 5 5 6 7 8 9 7 7 6 6 7 7 7 6 6 6 6 6 5 5 5 5 5 4 4 4 5 5 6 6 5 4 3 3 2 2 1 1 0
4 5 5 5 5 5 5 5 5 7 7 6 5 5 5 5 5 5 5 5 5 5 5 4 4 5 5 4 4 4 4 5 6 6 5 4 3 2 1 1 1 1 0 0
4 4 5 4 4 4 4 4 5 5 5 5 5 4 4 4 5 4 4 4 4 4 3 3 3 4 5 4 4 4 4 5 5 4 3 2 1 1 0 0 0 0 0 0
4 4 4 3 3 3 3 4 4 4 4 5 5 4 4 4 4 3 3 3 3 3 3 3 3 3 4 4 3 3 4 4 3 2 1 1 0 0 0 0 0 0 0 0
4 4 3 3 3 3 3 3 4 4 4 5 5 4 3 3 3 2 2 2 2 2 2 2 2 2 3 3 3 3 3 2 2 1 1 0 0 0 0 0 0 0 0 0
4 3 3 3 2 2 3 3 4 4 4 5 4 4 3 2 2 2 1 1 1 1 1 1 1 2 2 3 3 2 2 1 1 0 0 0 0 0 0 0 0 0 0 0
3 3 2 2 2 2 3 3 4 4 4 4 4 3 2 2 2 2 1 1 1 1 1 1 1 1 2 2 2 2 1 0 0 0 0 0 0 0 0 0 0 0 0 0
2 2 2 2 2 2 2 3 3 3 4 3 2 2 2 2 2 2 1 1 1 1 1 1 1 1 1 1 1 0 0 0 0 0 0 0 0 0 0 0 0 0 0 0
2 2 2 2 2 2 2 2 2 3 3 2 2 2 2 2 2 2 1 1 1 1 1 1 0 0 0 0 0 0 0 0 0 0 0 0 0 0 0 0 0 0 0 0
1 1 1 1 1 1 2 2 2 3 3 2 2 2 2 2 2 1 1 1 1 1 0 0 0 0 0 0 0 0 0 0 0 0 0 0 0 0 0 0 0 0 0 0
1 1 1 1 1 1 2 2 2 2 2 2 2 2 2 2 1 1 1 1 1 0 0 0 0 0 0 0 0 0 0 0 0 0 0 0 0 0 0 0 0 0 0 0
1 1 1 1 1 1 1 2 2 2 2 2 2 2 2 1 1 1 1 0 0 0 0 0 0 0 0 0 0 0 0 0 0 0 0 0 0 0 0 0 0 0 0 0
2 1 1 1 1 1 1 1 1 1 1 1 1 1 1 1 0 0 0 0 0 0 0 0 0 0 0 0 0 0 0 0 0 0 0 0 0 0 0 0 0 0 0 0
1 1 1 1 1 1 1 1 1 1 1 1 0 0 0 1 0 0 0 0 0 0 0 0 0 0 0 0 0 0 0 0 0 0 0 0 0 0 0 0 0 0 0 0
1 1 1 2 2 1 1 1 1 1 1 1 1 1 1 1 1 0 0 0 0 0 0 0 0 0 0 0 0 0 0 0 0 0 0 0 0 0 0 0 0 0 0 0
1 1 1 2 1 1 1 0 0 0 1 1 1 1 1 1 1 1 0 0 0 0 0 0 0 0 0 0 0 0 0 0 0 0 0 0 0 0 0 0 0 0 0 0
1 1 1 1 1 1 0 0 0 0 0 0 1 1 1 1 1 1 0 0 0 0 0 0 0 0 0 0 0 0 0 0 0 0 0 0 0 0 0 0 0 0 0 0
1 1 1 1 1 0 0 0 0 0 0 0 1 1 1 1 1 0 0 0 0 0 0 0 0 0 0 0 0 0 0 0 0 0 0 0 0 0 0 0 0 0 0 0
1 1 1 1 0 0 0 0 0 0 0 0 1 1 1 1 0 0 0 0 0 0 0 0 0 0 0 0 0 0 0 0 0 0 0 0 0 0 0 0 0 0 0 0
Wind_Speed
16 15 12 12 13 15 15 14 12 6 3 5 7 8 6 7 7 9 9 8 8 7 6 6 6 5 5 5 5 4 4 4 4 4 4 4 5 5 5 5 5 4 4 4
16 18 16 13 13 14 15 14 12 7 3 7 6 6 7 7 8 8 8 8 8 8 7 6 5 5 5 5 5 5 4 4 5 5 5 5 5 6 6 6 5 5 5 5
14 16 16 16 13 13 12 11 9 6 5 10 10 7 5 6 8 8 8 7 8 7 7 6 5 5 5 5 5 5 5 5 5 5 6 6 6 6 6 6 6 6 5 6
13 15 17 11 11 12 11 9 6 5 11 12 11 9 5 4 7 8 8 8 8 7 7 6 6 5 5 6 6 6 6 5 5 6 6 7 7 7 6 6 6 6 7 8
11 15 15 12 9 8 7 6 3 6 12 12 12 11 7 7 8 8 8 8 7 7 7 6 6 5 5 5 6 5 5 5 5 6 7 7 7 7 6 7 7 7 7 8
12 13 12 6 5 5 6 6 2 6 10 11 11 6 7 8 9 9 8 7 6 7 7 7 5 5 5 5 5 5 5 5 5 6 6 7 7 7 7 7 8 9 9 9
15 14 10 4 2 1 5 1 5 7 8 10 7 7 10 10 9 8 7 7 7 7 6 5 5 5 4 4 4 4 5 6 6 6 6 7 7 7 8 9 10 10 11 10
14 15 9 2 3 2 4 5 6 11 11 13 14 13 11 9 8 8 7 7 7 6 6 5 4 5 5 4 5 5 6 6 6 7 6 7 8 8 8 9 11 10 10 10
6 4 5 7 8 7 7 6 7 10 11 12 12 11 10 8 7 7 6 6 5 6 6 5 4 4 5 4 5 6 7 7 7 8 7 7 8 8 8 7 8 8 8 9
4 6 7 8 8 7 7 7 8 9 9 10 10 10 9 8 7 6 5 4 4 5 6 5 5 4 5 5 6 7 7 7 8 9 9 8 6 6 6 6 7 8 8 8
5 8 8 7 7 7 6 8 8 9 9 9 9 9 9 8 7 6 5 4 5 5 6 5 5 5 5 5 7 8 8 8 9 9 9 9 10 8 7 7 5 8 7 7
2 3 5 8 8 7 6 7 8 8 8 8 8 8 8 7 7 6 6 6 6 6 6 6 6 6 5 5 6 8 8 8 7 7 8 9 10 11 18 14 16 15 12 11
4 4 7 9 8 8 7 7 8 8 8 8 8 8 8 8 7 7 7 7 7 7 7 7 7 7 6 6 7 8 9 8 8 8 8 9 9 10 11 13 17 16 15 14
6 5 6 6 7 7 8 9 8 9 9 8 8 9 9 8 8 8 7 7 8 8 7 7 7 7 7 7 8 9 9 10 9 7 8 8 8 9 9 10 10 8 10 11
4 3 5 7 7 7 7 8 8 8 9 9 9 9 9 9 9 8 8 8 8 8 8 8 8 8 7 8 9 9 8 7 8 8 8 8 8 8 9 10 9 9 8 7
4 4 5 6 8 8 7 7 7 7 8 9 9 9 9 10 9 8 7 7 8 8 8 8 9 8 7 8 9 8 8 11 9 8 8 8 8 8 8 9 9 8 8 8
4 4 4 5 6 7 7 8 8 8 9 9 10 10 10 10 9 8 8 7 8 8 8 9 9 8 8 8 7 7 7 9 10 8 7 8 8 8 8 8 8 8 7 7
4 4 4 5 5 7 8 9 8 9 10 10 11 10 10 10 10 9 9 9 9 9 8 8 8 8 8 8 6 7 7 7 7 7 7 7 7 7 8 8 9 9 8 7
5 6 6 6 7 7 8 9 9 9 10 11 11 11 10 10 9 9 9 9 9 9 8 8 9 8 8 8 8 6 7 8 7 7 7 7 7 7 7 7 7 8 8 7
7 7 8 8 9 9 10 10 11 10 10 11 11 11 11 10 9 9 8 7 6 6 8 8 7 7 7 7 6 6 7 8 8 8 7 7 7 7 7 7 7 7 7 6
9 9 10 10 10 10 11 11 11 11 11 10 11 11 11 10 9 8 8 7 7 7 7 7 5 5 5 5 4 5 6 7 7 7 7 6 6 6 6 6 6 6 6 6
9 10 11 12 12 11 10 10 11 12 11 10 11 11 11 10 9 8 7 6 7 6 5 5 5 6 4 3 4 5 6 6 6 5 5 5 5 5 6 6 5 5 5 4
9 10 11 12 12 12 11 10 10 10 10 10 10 10 9 8 7 7 7 6 6 6 4 5 6 6 3 2 3 5 6 6 5 5 5 5 5 5 5 6 5 5 4 4
10 11 11 11 12 12 11 10 9 8 9 8 8 9 8 7 6 6 7 8 7 6 4 6 7 5 2 2 2 4 5 5 5 5 5 5 5 5 5 5 5 5 4 5
11 11 11 11 10 8 9 9 10 9 8 7 9 8 6 5 6 7 8 9 9 7 6 6 5 3 2 2 2 3 4 3 3 3 4 4 4 4 5 5 4 4 4 4
10 8 7 7 7 7 7 7 6 6 7 7 6 6 6 6 8 7 7 8 9 6 6 5 5 4 4 3 3 4 4 5 5 4 3 3 4 4 4 4 5 4 4 4
10 8 6 7 7 6 6 7 6 6 6 6 6 6 6 6 7 7 7 7 7 7 6 6 6 6 5 5 4 5 4 5 5 5 4 4 4 3 4 4 4 3 3 4
Wind_Direction
259 267 256 236 231 231 233 243 254 257 183 145 145 139 152 155 143 127 126 127 125 126 119 121 119 120 119 115 114 120 125 129 132 125 124 125 122 121 118 116 119 116 111 108
249 258 259 249 234 232 233 234 243 242 169 118 108 124 153 155 141 134 132 130 129 129 125 125 124 127 123 119 118 118 122 124 122 120 119 118 114 110 109 109 108 106 104 104
255 251 254 249 246 246 243 244 244 238 156 137 139 137 157 152 141 135 131 130 127 124 124 125 126 126 128 124 125 123 121 119 121 122 120 115 114 109 105 103 102 97 98 97
251 258 254 255 256 249 244 243 239 146 127 126 125 123 119 122 125 122 119 115 114 117 115 117 121 122 130 132 129 129 128 127 125 124 119 115 111 110 108 105 104 100 94 92
243 246 247 248 250 251 246 235 186 133 123 128 130 126 105 93 96 98 101 101 104 112 118 119 118 119 126 131 131 133 131 128 128 129 125 123 120 117 114 110 104 99 95 93
243 249 249 253 272 278 245 212 157 131 138 145 150 157 123 106 99 93 91 97 101 100 103 105 103 110 124 130 132 133 131 130 128 126 124 125 123 120 114 109 106 100 91 87
237 246 253 261 105 331 241 174 84 102 125 133 115 93 111 109 100 95 93 97 100 99 99 99 103 104 108 106 105 107 114 117 119 120 121 121 118 116 113 110 105 99 95 88
231 239 242 10 146 144 88 52 80 91 93 98 100 106 110 108 107 103 97 92 93 97 95 94 100 110 109 103 99 99 103 107 110 113 115 116 116 115 115 116 112 107 103 95
221 215 86 69 83 86 95 85 76 89 100 110 115 116 115 111 105 100 93 89 89 97 98 89 87 99 109 107 108 106 105 105 104 104 99 105 114 119 118 115 114 114 109 104
141 125 108 93 87 84 81 88 90 95 100 110 116 118 116 110 102 93 86 89 95 98 94 90 87 89 96 100 104 111 112 109 108 107 99 91 89 93 100 108 115 115 115 114
148 136 120 105 97 94 90 100 101 102 103 108 113 115 111 107 103 100 95 82 84 90 93 88 88 89 96 105 111 111 110 109 106 101 99 90 78 65 76 70 97 115 116 119
140 121 124 125 120 125 121 109 104 105 104 105 110 113 112 107 102 98 93 86 86 88 93 90 88 92 98 106 120 124 120 114 109 109 105 103 99 81 61 70 74 80 91 103
97 81 102 111 112 113 108 106 108 109 108 107 104 107 109 107 103 99 96 93 91 90 90 91 92 91 92 100 105 111 113 111 110 112 114 114 113 111 102 77 69 74 84 95
105 102 110 110 104 99 101 96 96 102 102 103 106 107 109 107 103 100 101 101 101 98 95 91 91 91 92 100 102 104 107 110 113 113 114 115 117 117 117 117 109 93 85 96
131 137 132 121 117 112 112 109 110 111 111 106 105 106 112 113 108 106 106 107 105 102 99 99 99 99 99 103 105 108 110 113 113 114 114 116 119 119 117 117 116 118 119 110
128 124 129 133 137 138 135 128 127 126 121 115 110 110 112 112 109 107 107 111 112 108 106 106 106 109 111 111 111 107 106 113 117 120 120 120 121 122 122 123 124 128 132 135
150 159 163 155 149 149 143 138 139 135 126 124 123 122 119 117 114 111 108 104 103 105 108 112 113 116 117 118 117 118 119 123 124 122 122 124 124 126 129 131 131 134 135 145
167 170 168 167 163 146 140 135 134 132 129 129 127 126 125 123 121 118 114 110 106 102 103 113 120 124 124 123 119 120 123 130 132 125 125 129 134 137 136 135 139 139 140 153
158 160 159 152 146 140 133 128 129 127 128 130 130 128 124 121 121 122 122 122 120 116 117 120 125 124 123 124 126 130 136 136 131 128 131 133 138 136 137 140 143 144 148 158
157 152 143 139 135 132 128 125 128 129 127 126 126 125 124 124 125 125 122 115 111 116 126 129 135 130 132 140 146 143 139 137 134 134 140 147 147 144 148 150 149 150 153 161
145 138 133 126 121 122 125 129 131 129 129 130 130 129 127 127 130 130 126 117 112 116 125 132 140 136 134 135 150 141 136 134 136 141 146 150 151 150 149 148 151 155 159 164
132 131 129 125 124 122 123 126 129 130 131 131 131 132 133 134 131 122 111 116 129 133 143 144 130 112 106 148 158 147 141 138 140 143 148 149 147 145 145 148 153 158 160 160
123 122 123 124 124 122 122 125 130 134 135 136 138 140 138 134 134 133 129 131 138 138 137 121 114 108 95 171 158 142 137 139 143 149 152 153 153 153 155 160 165 167 164 167
117 116 118 120 122 125 128 132 132 131 133 135 137 137 136 135 129 121 117 120 114 122 117 113 116 112 141 195 167 141 140 149 158 165 168 168 167 164 164 168 170 170 171 179
116 117 120 125 129 129 131 132 131 135 138 133 134 140 139 127 125 122 124 127 132 134 131 135 142 158 201 200 175 151 147 153 168 180 178 168 170 170 170 176 178 180 182 185
112 113 116 119 119 124 131 134 136 139 138 135 137 137 130 126 127 127 134 144 147 150 148 157 173 197 207 200 182 176 172 167 177 193 189 181 186 185 182 185 185 191 189 189
107 106 108 110 112 118 122 125 127 130 131 133 132 133 135 136 139 146 152 154 159 167 170 179 188 198 202 202 200 195 192 189 192 198 193 193 198 195 190 190 195 194 194 196